| time (UTC) | temp F | wind direction | speed MPH | gust MPH | rain 1hr in | rain 24hr in | rain mn in | humidity % | barometer mb |
| 20260507142047 | 53 | 186 | 0.0 | 0.0 | 0.00 | 0.00 | 0.00 | 70 | 1025.7 |
| 20260507141543 | 53 | 186 | 0.0 | 0.0 | 0.00 | 0.00 | 0.00 | 71 | 1025.6 |
| 20260507141040 | 52 | 104 | 0.0 | 0.0 | 0.00 | 0.00 | 0.00 | 71 | 1025.6 |
| 20260507140537 | 52 | 165 | 0.0 | 0.0 | 0.00 | 0.00 | 0.00 | 72 | 1025.5 |
| 20260507140035 | 52 | 162 | 0.0 | 0.0 | 0.00 | 0.00 | 0.00 | 72 | 1025.7 |
| 20260507135531 | 51 | 200 | 0.0 | 0.0 | 0.00 | 0.00 | 0.00 | 73 | 1025.5 |
| 20260507135029 | 51 | 196 | 0.0 | 0.0 | 0.00 | 0.00 | 0.00 | 73 | 1025.4 |
| 20260507134525 | 51 | 151 | 0.0 | 0.0 | 0.00 | 0.00 | 0.00 | 74 | 1025.3 |
| 20260507134021 | 51 | 194 | 0.0 | 5.0 | 0.00 | 0.00 | 0.00 | 74 | 1025.4 |
| 20260507133517 | 51 | 126 | 0.0 | 0.0 | 0.00 | 0.00 | 0.00 | 75 | 1025.5 |
| 20260507133016 | 51 | 162 | 0.0 | 0.0 | 0.00 | 0.00 | 0.00 | 75 | 1025.5 |
| 20260507132512 | 51 | 140 | 0.0 | 0.0 | 0.00 | 0.00 | 0.00 | 75 | 1025.4 |
| 20260507132008 | 51 | 138 | 0.0 | 0.0 | 0.00 | 0.00 | 0.00 | 75 | 1025.4 |
| 20260507131505 | 50 | 149 | 0.0 | 0.0 | 0.00 | 0.00 | 0.00 | 76 | 1025.4 |
| 20260507131002 | 50 | 171 | 0.0 | 0.0 | 0.00 | 0.00 | 0.00 | 76 | 1025.4 |
| 20260507130459 | 50 | 165 | 0.0 | 0.0 | 0.00 | 0.00 | 0.00 | 78 | 1025.3 |
| 20260507125957 | 50 | 186 | 0.0 | 0.0 | 0.00 | 0.00 | 0.00 | 79 | 1025.1 |
| 20260507125455 | 50 | 184 | 0.0 | 0.0 | 0.00 | 0.00 | 0.00 | 79 | 1025.4 |
| 20260507124952 | 50 | 168 | 0.0 | 0.0 | 0.00 | 0.00 | 0.00 | 79 | 1025.4 |
| 20260507124448 | 50 | 157 | 0.0 | 0.0 | 0.00 | 0.00 | 0.00 | 79 | 1025.3 |
| 20260507123947 | 50 | 168 | 0.0 | 0.0 | 0.00 | 0.00 | 0.00 | 79 | 1025.3 |
| 20260507123444 | 50 | 180 | 0.0 | 0.0 | 0.00 | 0.00 | 0.00 | 78 | 1025.4 |
| 20260507122940 | 50 | 180 | 0.0 | 0.0 | 0.00 | 0.00 | 0.00 | 78 | 1025.2 |
| 20260507122436 | 50 | 163 | 0.0 | 0.0 | 0.00 | 0.00 | 0.00 | 77 | 1025.6 |
| 20260507121932 | 50 | 160 | 0.0 | 0.0 | 0.00 | 0.00 | 0.00 | 75 | 1025.3 |
| 20260507121427 | 51 | 184 | 0.0 | 0.0 | 0.00 | 0.00 | 0.00 | 75 | 1025.4 |
| 20260507120924 | 51 | 181 | 0.0 | 0.0 | 0.00 | 0.00 | 0.00 | 74 | 1025.5 |
| 20260507120421 | 51 | 163 | 0.0 | 0.0 | 0.00 | 0.00 | 0.00 | 75 | 1025.6 |
| 20260507115917 | 51 | 165 | 0.0 | 0.0 | 0.00 | 0.00 | 0.00 | 76 | 1025.4 |
| 20260507115413 | 51 | 166 | 0.0 | 3.0 | 0.00 | 0.00 | 0.00 | 76 | 1025.4 |
| 20260507114909 | 51 | 181 | 0.0 | 0.0 | 0.00 | 0.00 | 0.00 | 77 | 1025.6 |
| 20260507114406 | 51 | 168 | 0.0 | 0.0 | 0.00 | 0.00 | 0.00 | 78 | 1025.6 |
| 20260507113903 | 51 | 178 | 0.0 | 0.0 | 0.00 | 0.00 | 0.00 | 77 | 1025.7 |
| 20260507113400 | 51 | 163 | 0.0 | 0.0 | 0.00 | 0.00 | 0.00 | 77 | 1025.7 |
| 20260507112857 | 50 | 182 | 0.0 | 0.0 | 0.00 | 0.00 | 0.00 | 77 | 1025.8 |
| 20260507112355 | 50 | 184 | 0.0 | 0.0 | 0.00 | 0.00 | 0.00 | 77 | 1025.7 |
| 20260507111852 | 50 | 188 | 0.0 | 0.0 | 0.00 | 0.00 | 0.00 | 78 | 1025.5 |
| 20260507111349 | 50 | 190 | 0.0 | 0.0 | 0.00 | 0.00 | 0.00 | 79 | 1025.5 |
| 20260507110845 | 50 | 171 | 0.0 | 0.0 | 0.00 | 0.00 | 0.00 | 80 | 1025.5 |
| 20260507110341 | 50 | 154 | 0.0 | 0.0 | 0.00 | 0.00 | 0.00 | 80 | 1025.7 |
| 20260507105838 | 50 | 163 | 0.0 | 0.0 | 0.00 | 0.00 | 0.00 | 81 | 1025.6 |
| 20260507105335 | 50 | 178 | 0.0 | 0.0 | 0.00 | 0.00 | 0.00 | 81 | 1025.6 |
| 20260507104832 | 50 | 179 | 0.0 | 0.0 | 0.00 | 0.00 | 0.00 | 82 | 1025.5 |
| 20260507104328 | 50 | 179 | 0.0 | 0.0 | 0.00 | 0.00 | 0.00 | 81 | 1025.5 |
| 20260507103824 | 50 | 179 | 0.0 | 0.0 | 0.00 | 0.00 | 0.00 | 81 | 1025.7 |
| 20260507103321 | 50 | 171 | 0.0 | 0.0 | 0.00 | 0.00 | 0.00 | 81 | 1025.7 |
| 20260507102817 | 50 | 158 | 0.0 | 0.0 | 0.00 | 0.00 | 0.00 | 81 | 1025.6 |
| 20260507102314 | 50 | 181 | 0.0 | 0.0 | 0.00 | 0.00 | 0.00 | 80 | 1025.9 |
| 20260507101810 | 50 | 184 | 0.0 | 0.0 | 0.00 | 0.00 | 0.00 | 80 | 1025.7 |
| 20260507101305 | 50 | 169 | 0.0 | 0.0 | 0.00 | 0.00 | 0.00 | 80 | 1025.8 |
| 20260507100803 | 51 | 156 | 0.0 | 0.0 | 0.00 | 0.00 | 0.00 | 80 | 1025.8 |
| 20260507100301 | 51 | 150 | 0.0 | 0.0 | 0.00 | 0.00 | 0.00 | 80 | 1025.7 |
| 20260507095758 | 51 | 146 | 0.0 | 0.0 | 0.00 | 0.00 | 0.00 | 79 | 1025.6 |
| 20260507095254 | 51 | 125 | 0.0 | 0.0 | 0.00 | 0.00 | 0.00 | 79 | 1025.7 |
| 20260507094752 | 51 | 167 | 0.0 | 0.0 | 0.00 | 0.00 | 0.00 | 78 | 1025.7 |
| 20260507094249 | 51 | 162 | 0.0 | 0.0 | 0.00 | 0.00 | 0.00 | 77 | 1025.5 |
| 20260507093745 | 51 | 167 | 0.0 | 0.0 | 0.00 | 0.00 | 0.00 | 77 | 1025.6 |
| 20260507093244 | 51 | 172 | 0.0 | 0.0 | 0.00 | 0.00 | 0.00 | 76 | 1025.6 |
| 20260507092741 | 52 | 154 | 0.0 | 0.0 | 0.00 | 0.00 | 0.00 | 76 | 1025.6 |
| 20260507092237 | 52 | 177 | 0.0 | 0.0 | 0.00 | 0.00 | 0.00 | 75 | 1025.7 |
| 20260507091734 | 52 | 136 | 0.0 | 0.0 | 0.00 | 0.00 | 0.00 | 76 | 1025.7 |
| 20260507091230 | 52 | 191 | 0.0 | 3.0 | 0.00 | 0.00 | 0.00 | 76 | 1025.8 |
| 20260507090726 | 52 | 208 | 0.0 | 0.0 | 0.00 | 0.00 | 0.00 | 76 | 1025.7 |
| 20260507090222 | 52 | 198 | 0.0 | 0.0 | 0.00 | 0.00 | 0.00 | 77 | 1025.7 |
| 20260507085720 | 52 | 168 | 0.0 | 0.0 | 0.00 | 0.00 | 0.00 | 77 | 1025.6 |
| 20260507085217 | 52 | 193 | 0.0 | 0.0 | 0.00 | 0.00 | 0.00 | 77 | 1025.5 |
| 20260507084714 | 52 | 197 | 0.0 | 0.0 | 0.00 | 0.00 | 0.00 | 77 | 1025.6 |
| 20260507084210 | 52 | 187 | 0.0 | 3.0 | 0.00 | 0.00 | 0.00 | 77 | 1025.7 |
| 20260507083708 | 52 | 191 | 0.0 | 0.0 | 0.00 | 0.00 | 0.00 | 77 | 1025.7 |
| 20260507083204 | 53 | 163 | 0.0 | 0.0 | 0.00 | 0.00 | 0.00 | 78 | 1025.7 |
| 20260507082700 | 53 | 190 | 0.0 | 3.0 | 0.00 | 0.00 | 0.00 | 78 | 1025.9 |
| 20260507082156 | 53 | 179 | 0.0 | 0.0 | 0.00 | 0.00 | 0.00 | 79 | 1025.8 |
| 20260507081653 | 53 | 152 | 0.0 | 0.0 | 0.00 | 0.00 | 0.00 | 79 | 1025.7 |
| 20260507081149 | 53 | 208 | 0.0 | 0.0 | 0.00 | 0.00 | 0.00 | 79 | 1025.6 |
| 20260507080646 | 53 | 216 | 0.0 | 0.0 | 0.00 | 0.00 | 0.00 | 79 | 1025.6 |
| 20260507080142 | 53 | 215 | 0.0 | 0.0 | 0.00 | 0.00 | 0.00 | 79 | 1025.7 |
| 20260507075637 | 53 | 226 | 0.0 | 0.0 | 0.00 | 0.00 | 0.00 | 79 | 1025.7 |
| 20260507075134 | 53 | 244 | 0.0 | 0.0 | 0.00 | 0.00 | 0.00 | 79 | 1025.8 |
| 20260507074631 | 53 | 152 | 0.0 | 0.0 | 0.00 | 0.00 | 0.00 | 79 | 1025.8 |
| 20260507074129 | 53 | 206 | 0.0 | 0.0 | 0.00 | 0.00 | 0.00 | 79 | 1025.7 |
| 20260507073625 | 53 | 204 | 0.0 | 0.0 | 0.00 | 0.00 | 0.00 | 79 | 1025.7 |
| 20260507073121 | 53 | 179 | 0.0 | 3.0 | 0.00 | 0.00 | 0.00 | 79 | 1025.7 |
| 20260507072619 | 53 | 197 | 0.0 | 0.0 | 0.00 | 0.00 | 0.00 | 78 | 1025.7 |
| 20260507072116 | 53 | 171 | 0.0 | 3.0 | 0.00 | 0.00 | 0.00 | 78 | 1025.6 |
| 20260507071613 | 53 | 191 | 0.0 | 3.0 | 0.00 | 0.00 | 0.00 | 78 | 1025.7 |
| 20260507071110 | 54 | 160 | 0.0 | 0.0 | 0.00 | 0.00 | 0.00 | 77 | 1025.6 |
| 20260507070607 | 54 | 245 | 0.0 | 0.0 | 0.00 | 0.00 | 0.00 | 77 | 1025.5 |
| 20260507070104 | 54 | 202 | 0.0 | 0.0 | 0.00 | 0.00 | 0.00 | 77 | 1025.7 |
| 20260507065600 | 54 | 219 | 0.0 | 0.0 | 0.00 | 0.00 | 0.00 | 78 | 1025.6 |
| 20260507065057 | 54 | 172 | 0.0 | 0.0 | 0.00 | 0.00 | 0.00 | 78 | 1025.7 |
| 20260507064555 | 54 | 211 | 0.0 | 0.0 | 0.00 | 0.00 | 0.00 | 77 | 1025.7 |
| 20260507064054 | 54 | 200 | 0.0 | 0.0 | 0.00 | 0.00 | 0.00 | 77 | 1025.8 |
| 20260507063550 | 54 | 219 | 0.0 | 3.0 | 0.00 | 0.00 | 0.00 | 77 | 1025.7 |
| 20260507063048 | 54 | 209 | 0.0 | 0.0 | 0.00 | 0.00 | 0.00 | 77 | 1025.7 |
| 20260507062544 | 54 | 219 | 0.0 | 0.0 | 0.00 | 0.00 | 0.00 | 77 | 1025.6 |
| 20260507062042 | 54 | 225 | 0.0 | 0.0 | 0.00 | 0.00 | 0.00 | 77 | 1025.8 |
| 20260507061539 | 54 | 243 | 0.0 | 0.0 | 0.00 | 0.00 | 0.00 | 77 | 1025.8 |
| 20260507061037 | 54 | 149 | 0.0 | 0.0 | 0.00 | 0.00 | 0.00 | 77 | 1025.6 |
| 20260507060535 | 54 | 229 | 0.0 | 0.0 | 0.00 | 0.00 | 0.00 | 77 | 1025.6 |
| 20260507060032 | 55 | 301 | 0.0 | 0.0 | 0.00 | 0.00 | 0.00 | 76 | 1025.6 |
| 20260507055531 | 55 | 222 | 0.0 | 0.0 | 0.00 | 0.00 | 0.00 | 76 | 1025.5 |
| 20260507055028 | 55 | 306 | 0.0 | 0.0 | 0.00 | 0.00 | 0.00 | 76 | 1025.8 |
| 20260507054524 | 55 | 259 | 0.0 | 0.0 | 0.00 | 0.00 | 0.00 | 76 | 1025.7 |
| 20260507054021 | 55 | 281 | 0.0 | 0.0 | 0.00 | 0.00 | 0.00 | 75 | 1025.7 |
| 20260507053519 | 55 | 246 | 0.0 | 0.0 | 0.00 | 0.00 | 0.00 | 75 | 1025.6 |
| 20260507053018 | 55 | 240 | 0.0 | 0.0 | 0.00 | 0.00 | 0.00 | 75 | 1025.7 |
| 20260507052515 | 55 | 298 | 1.0 | 3.0 | 0.00 | 0.00 | 0.00 | 74 | 1025.7 |
| 20260507052011 | 55 | 293 | 0.0 | 3.0 | 0.00 | 0.00 | 0.00 | 73 | 1025.6 |
| 20260507051509 | 55 | 233 | 0.0 | 3.0 | 0.00 | 0.00 | 0.00 | 73 | 1025.7 |
| 20260507051006 | 56 | 284 | 0.0 | 0.0 | 0.00 | 0.00 | 0.00 | 72 | 1025.8 |
| 20260507050502 | 56 | 301 | 3.0 | 5.0 | 0.00 | 0.00 | 0.00 | 72 | 1025.8 |
| 20260507045959 | 56 | 275 | 1.0 | 3.0 | 0.00 | 0.00 | 0.00 | 72 | 1025.7 |
| 20260507045455 | 56 | 252 | 0.0 | 3.0 | 0.00 | 0.00 | 0.00 | 72 | 1025.8 |
| 20260507044953 | 56 | 234 | 0.0 | 0.0 | 0.00 | 0.00 | 0.00 | 71 | 1025.7 |
| 20260507044450 | 56 | 211 | 0.0 | 0.0 | 0.00 | 0.00 | 0.00 | 71 | 1025.8 |
| 20260507043946 | 56 | 278 | 1.0 | 5.0 | 0.00 | 0.00 | 0.00 | 71 | 1025.8 |
| 20260507043442 | 56 | 247 | 0.0 | 0.0 | 0.00 | 0.00 | 0.00 | 71 | 1025.6 |
| 20260507042938 | 56 | 259 | 0.0 | 3.0 | 0.00 | 0.00 | 0.00 | 71 | 1025.7 |
| 20260507042436 | 56 | 261 | 0.0 | 3.0 | 0.00 | 0.00 | 0.00 | 71 | 1025.6 |
| 20260507041931 | 56 | 180 | 0.0 | 0.0 | 0.00 | 0.00 | 0.00 | 71 | 1025.7 |
| 20260507041428 | 56 | 237 | 0.0 | 0.0 | 0.00 | 0.00 | 0.00 | 71 | 1025.9 |
| 20260507040926 | 56 | 235 | 0.0 | 0.0 | 0.00 | 0.00 | 0.00 | 71 | 1025.5 |
| 20260507040421 | 57 | 205 | 0.0 | 0.0 | 0.00 | 0.00 | 0.00 | 70 | 1025.6 |
| 20260507035917 | 57 | 158 | 0.0 | 5.0 | 0.00 | 0.00 | 0.00 | 70 | 1025.6 |
| 20260507035414 | 57 | 126 | 0.0 | 5.0 | 0.00 | 0.00 | 0.00 | 70 | 1025.5 |
| 20260507034911 | 57 | 254 | 1.0 | 3.0 | 0.00 | 0.00 | 0.00 | 70 | 1025.5 |
| 20260507034407 | 57 | 203 | 0.0 | 0.0 | 0.00 | 0.00 | 0.00 | 70 | 1025.5 |
| 20260507033905 | 57 | 226 | 0.0 | 0.0 | 0.00 | 0.00 | 0.00 | 70 | 1025.5 |
| 20260507033403 | 57 | 215 | 0.0 | 0.0 | 0.00 | 0.00 | 0.00 | 69 | 1025.2 |
| 20260507032900 | 57 | 226 | 0.0 | 0.0 | 0.00 | 0.00 | 0.00 | 69 | 1025.4 |
| 20260507032357 | 57 | 322 | 0.0 | 7.0 | 0.00 | 0.00 | 0.00 | 69 | 1025.2 |
| 20260507031853 | 57 | 230 | 0.0 | 0.0 | 0.00 | 0.00 | 0.00 | 69 | 1025.2 |
| 20260507031350 | 57 | 207 | 0.0 | 0.0 | 0.00 | 0.00 | 0.00 | 69 | 1025.2 |
| 20260507030846 | 57 | 208 | 0.0 | 0.0 | 0.00 | 0.00 | 0.00 | 69 | 1025.1 |
| 20260507030344 | 57 | 221 | 0.0 | 0.0 | 0.00 | 0.00 | 0.00 | 69 | 1025.1 |
| 20260507025840 | 57 | 237 | 0.0 | 0.0 | 0.00 | 0.00 | 0.00 | 69 | 1025.1 |
| 20260507025338 | 57 | 222 | 0.0 | 0.0 | 0.00 | 0.00 | 0.00 | 69 | 1025.2 |
| 20260507024836 | 57 | 236 | 0.0 | 0.0 | 0.00 | 0.00 | 0.00 | 68 | 1025.2 |
| 20260507024333 | 58 | 206 | 0.0 | 0.0 | 0.00 | 0.00 | 0.00 | 68 | 1025.1 |
| 20260507023828 | 58 | 208 | 0.0 | 0.0 | 0.00 | 0.00 | 0.00 | 68 | 1025.1 |
| 20260507023325 | 58 | 209 | 0.0 | 0.0 | 0.00 | 0.00 | 0.00 | 68 | 1025.1 |
| 20260507022823 | 58 | 249 | 0.0 | 0.0 | 0.00 | 0.00 | 0.00 | 68 | 1025.1 |
| 20260507022319 | 58 | 233 | 0.0 | 3.0 | 0.00 | 0.00 | 0.00 | 68 | 1024.8 |
| 20260507021815 | 58 | 239 | 0.0 | 0.0 | 0.00 | 0.00 | 0.00 | 68 | 1024.9 |
| 20260507021311 | 58 | 208 | 0.0 | 0.0 | 0.00 | 0.00 | 0.00 | 68 | 1024.9 |
| 20260507020809 | 58 | 229 | 0.0 | 0.0 | 0.00 | 0.00 | 0.00 | 68 | 1025.0 |
| 20260507020305 | 59 | 269 | 0.0 | 0.0 | 0.00 | 0.00 | 0.00 | 68 | 1025.0 |
| 20260507015803 | 59 | 201 | 0.0 | 0.0 | 0.00 | 0.00 | 0.00 | 68 | 1024.8 |
| 20260507015300 | 59 | 232 | 0.0 | 0.0 | 0.00 | 0.00 | 0.00 | 67 | 1025.0 |
| 20260507014757 | 59 | 209 | 0.0 | 0.0 | 0.00 | 0.00 | 0.00 | 68 | 1025.0 |
| 20260507014253 | 59 | 270 | 2.0 | 5.0 | 0.00 | 0.00 | 0.00 | 67 | 1024.8 |
| 20260507013749 | 59 | 243 | 0.0 | 3.0 | 0.00 | 0.00 | 0.00 | 67 | 1024.8 |
| 20260507013247 | 59 | 254 | 0.0 | 0.0 | 0.00 | 0.00 | 0.00 | 67 | 1024.9 |
| 20260507012744 | 59 | 200 | 0.0 | 0.0 | 0.00 | 0.00 | 0.00 | 67 | 1024.9 |
| 20260507012245 | 59 | 241 | 0.0 | 0.0 | 0.00 | 0.00 | 0.00 | 67 | 1024.8 |
| 20260507011743 | 59 | 212 | 0.0 | 5.0 | 0.00 | 0.00 | 0.00 | 67 | 1024.8 |
| 20260507011239 | 59 | 250 | 0.0 | 3.0 | 0.00 | 0.00 | 0.00 | 66 | 1025.0 |
| 20260507010738 | 60 | 210 | 0.0 | 3.0 | 0.00 | 0.00 | 0.00 | 66 | 1025.0 |
| 20260507010235 | 60 | 211 | 0.0 | 0.0 | 0.00 | 0.00 | 0.00 | 66 | 1024.9 |
| 20260507005733 | 60 | 191 | 0.0 | 0.0 | 0.00 | 0.00 | 0.00 | 66 | 1025.0 |
| 20260507005229 | 60 | 234 | 0.0 | 3.0 | 0.00 | 0.00 | 0.00 | 65 | 1025.0 |
| 20260507004725 | 60 | 241 | 0.0 | 3.0 | 0.00 | 0.00 | 0.00 | 65 | 1025.1 |
| 20260507004223 | 60 | 220 | 1.0 | 7.0 | 0.00 | 0.00 | 0.00 | 66 | 1024.8 |
| 20260507003719 | 60 | 279 | 0.0 | 5.0 | 0.00 | 0.00 | 0.00 | 66 | 1024.9 |
| 20260507003214 | 60 | 292 | 1.0 | 5.0 | 0.00 | 0.00 | 0.00 | 65 | 1025.3 |
| 20260507002711 | 60 | 211 | 0.0 | 3.0 | 0.00 | 0.00 | 0.00 | 65 | 1025.0 |
| 20260507002207 | 60 | 242 | 0.0 | 3.0 | 0.00 | 0.00 | 0.00 | 65 | 1025.1 |
| 20260507001704 | 60 | 230 | 0.0 | 0.0 | 0.00 | 0.00 | 0.00 | 65 | 1025.0 |
| 20260507001201 | 59 | 302 | 4.0 | 10.0 | 0.00 | 0.00 | 0.00 | 65 | 1025.1 |
| 20260507000657 | 60 | 258 | 2.0 | 3.0 | 0.00 | 0.00 | 0.00 | 65 | 1024.8 |
| 20260507000153 | 60 | 292 | 0.0 | 3.0 | 0.00 | 0.00 | 0.00 | 65 | 1025.0 |
| 20260506235650 | 60 | 273 | 6.0 | 7.0 | 0.00 | 0.00 | 0.00 | 65 | 1025.0 |
| 20260506235145 | 61 | 223 | 0.0 | 3.0 | 0.00 | 0.00 | 0.00 | 64 | 1025.0 |
| 20260506234643 | 60 | 230 | 0.0 | 3.0 | 0.00 | 0.00 | 0.00 | 64 | 1024.9 |
| 20260506234140 | 60 | 197 | 0.0 | 0.0 | 0.00 | 0.00 | 0.00 | 63 | 1024.9 |
| 20260506233637 | 60 | 277 | 1.0 | 5.0 | 0.00 | 0.00 | 0.00 | 63 | 1025.0 |
| 20260506233134 | 60 | 313 | 0.0 | 5.0 | 0.00 | 0.00 | 0.00 | 64 | 1024.9 |
| 20260506232630 | 60 | 186 | 0.0 | 0.0 | 0.00 | 0.00 | 0.00 | 65 | 1025.2 |
| 20260506232125 | 60 | 211 | 0.0 | 0.0 | 0.00 | 0.00 | 0.00 | 66 | 1025.0 |
| 20260506231623 | 59 | 282 | 0.0 | 3.0 | 0.00 | 0.00 | 0.00 | 66 | 1025.1 |
| 20260506231121 | 59 | 260 | 2.0 | 7.0 | 0.00 | 0.00 | 0.00 | 66 | 1025.2 |
| 20260506230618 | 59 | 274 | 0.0 | 5.0 | 0.00 | 0.00 | 0.00 | 66 | 1025.2 |
| 20260506230115 | 59 | 287 | 2.0 | 7.0 | 0.00 | 0.00 | 0.00 | 66 | 1025.2 |
| 20260506225611 | 59 | 211 | 0.0 | 0.0 | 0.00 | 0.00 | 0.00 | 66 | 1025.1 |
| 20260506225108 | 59 | 310 | 0.0 | 0.0 | 0.00 | 0.00 | 0.00 | 66 | 1025.1 |
| 20260506224604 | 60 | 273 | 0.0 | 0.0 | 0.00 | 0.00 | 0.00 | 65 | 1025.2 |
| 20260506224101 | 60 | 203 | 0.0 | 0.0 | 0.00 | 0.00 | 0.00 | 64 | 1025.2 |
| 20260506223557 | 60 | 185 | 0.0 | 0.0 | 0.00 | 0.00 | 0.00 | 65 | 1025.3 |
| 20260506223053 | 59 | 207 | 0.0 | 0.0 | 0.00 | 0.00 | 0.00 | 66 | 1025.1 |
| 20260506222550 | 59 | 277 | 0.0 | 5.0 | 0.00 | 0.00 | 0.00 | 67 | 1025.4 |
| 20260506222047 | 59 | 293 | 3.0 | 5.0 | 0.00 | 0.00 | 0.00 | 67 | 1025.4 |
| 20260506221544 | 59 | 282 | 0.0 | 0.0 | 0.00 | 0.00 | 0.00 | 67 | 1025.3 |
| 20260506221042 | 58 | 299 | 0.0 | 0.0 | 0.00 | 0.00 | 0.00 | 67 | 1025.6 |
| 20260506220538 | 59 | 204 | 0.0 | 0.0 | 0.00 | 0.00 | 0.00 | 67 | 1025.4 |
| 20260506220034 | 58 | 335 | 4.0 | 5.0 | 0.00 | 0.00 | 0.00 | 67 | 1025.6 |
| 20260506215531 | 58 | 220 | 0.0 | 0.0 | 0.00 | 0.00 | 0.00 | 68 | 1025.6 |
| 20260506215026 | 58 | 279 | 0.0 | 0.0 | 0.00 | 0.00 | 0.00 | 68 | 1025.6 |
| 20260506214524 | 58 | 289 | 0.0 | 0.0 | 0.00 | 0.00 | 0.00 | 68 | 1025.5 |
| 20260506214021 | 58 | 252 | 1.0 | 3.0 | 0.00 | 0.00 | 0.00 | 68 | 1025.5 |
| 20260506213519 | 58 | 263 | 0.0 | 0.0 | 0.00 | 0.00 | 0.00 | 68 | 1025.5 |
| 20260506213016 | 58 | 294 | 0.0 | 5.0 | 0.00 | 0.00 | 0.00 | 68 | 1025.5 |
| 20260506212512 | 58 | 292 | 2.0 | 5.0 | 0.00 | 0.00 | 0.00 | 68 | 1025.5 |
| 20260506212007 | 58 | 297 | 0.0 | 0.0 | 0.00 | 0.00 | 0.00 | 68 | 1025.6 |
| 20260506211503 | 58 | 293 | 3.0 | 7.0 | 0.00 | 0.00 | 0.00 | 68 | 1025.4 |
| 20260506211001 | 59 | 229 | 0.0 | 0.0 | 0.00 | 0.00 | 0.00 | 68 | 1025.4 |
| 20260506210457 | 58 | 307 | 1.0 | 5.0 | 0.00 | 0.00 | 0.00 | 68 | 1025.5 |
| 20260506205954 | 59 | 292 | 2.0 | 7.0 | 0.00 | 0.00 | 0.00 | 67 | 1025.3 |
| 20260506205450 | 59 | 280 | 0.0 | 0.0 | 0.00 | 0.00 | 0.00 | 67 | 1025.3 |
| 20260506204946 | 59 | 246 | 0.0 | 0.0 | 0.00 | 0.00 | 0.00 | 68 | 1025.3 |
| 20260506204444 | 59 | 294 | 0.0 | 0.0 | 0.00 | 0.00 | 0.00 | 67 | 1025.3 |
| 20260506203941 | 59 | 295 | 0.0 | 0.0 | 0.00 | 0.00 | 0.00 | 69 | 1025.5 |
| 20260506203438 | 59 | 245 | 0.0 | 0.0 | 0.00 | 0.00 | 0.00 | 69 | 1025.4 |
| 20260506202935 | 59 | 224 | 0.0 | 0.0 | 0.00 | 0.00 | 0.00 | 69 | 1025.1 |
| 20260506202432 | 59 | 252 | 0.0 | 0.0 | 0.00 | 0.00 | 0.00 | 69 | 1024.9 |
| 20260506201929 | 59 | 238 | 0.0 | 0.0 | 0.00 | 0.00 | 0.00 | 69 | 1025.1 |
| 20260506201426 | 58 | 130 | 0.0 | 0.0 | 0.00 | 0.00 | 0.00 | 71 | 1025.2 |
| 20260506200923 | 58 | 235 | 0.0 | 0.0 | 0.00 | 0.00 | 0.00 | 72 | 1025.2 |
| 20260506200419 | 58 | 223 | 0.0 | 0.0 | 0.00 | 0.00 | 0.00 | 71 | 1025.4 |
| 20260506195916 | 58 | 214 | 0.0 | 0.0 | 0.00 | 0.00 | 0.00 | 73 | 1025.1 |
| 20260506195413 | 57 | 280 | 1.0 | 5.0 | 0.00 | 0.00 | 0.00 | 72 | 1025.1 |
| 20260506194909 | 58 | 243 | 0.0 | 0.0 | 0.00 | 0.00 | 0.00 | 72 | 1025.2 |
| 20260506194406 | 58 | 135 | 0.0 | 0.0 | 0.00 | 0.00 | 0.00 | 72 | 1025.1 |
| 20260506193903 | 58 | 228 | 0.0 | 0.0 | 0.00 | 0.00 | 0.00 | 72 | 1025.1 |
| 20260506193400 | 58 | 204 | 0.0 | 0.0 | 0.00 | 0.00 | 0.00 | 73 | 1024.9 |
| 20260506192856 | 57 | 231 | 0.0 | 0.0 | 0.00 | 0.00 | 0.00 | 73 | 1025.2 |
| 20260506192354 | 57 | 89 | 0.0 | 0.0 | 0.00 | 0.00 | 0.00 | 73 | 1025.0 |
| 20260506191851 | 58 | 222 | 0.0 | 0.0 | 0.00 | 0.00 | 0.00 | 73 | 1025.2 |
| 20260506191347 | 57 | 199 | 0.0 | 0.0 | 0.00 | 0.00 | 0.00 | 73 | 1025.0 |
| 20260506190844 | 57 | 254 | 0.0 | 3.0 | 0.00 | 0.00 | 0.00 | 74 | 1024.9 |
| 20260506190340 | 57 | 170 | 0.0 | 5.0 | 0.00 | 0.00 | 0.00 | 73 | 1025.0 |
| 20260506185837 | 57 | 229 | 0.0 | 3.0 | 0.00 | 0.00 | 0.00 | 73 | 1025.1 |
| 20260506185334 | 57 | 126 | 3.0 | 5.0 | 0.00 | 0.00 | 0.00 | 73 | 1025.0 |
| 20260506184831 | 57 | 183 | 0.0 | 3.0 | 0.00 | 0.00 | 0.00 | 73 | 1025.2 |
| 20260506184328 | 57 | 142 | 0.0 | 3.0 | 0.00 | 0.00 | 0.00 | 73 | 1025.1 |
| 20260506183826 | 57 | 181 | 0.0 | 0.0 | 0.00 | 0.00 | 0.00 | 73 | 1025.1 |
| 20260506183321 | 57 | 210 | 0.0 | 7.0 | 0.00 | 0.00 | 0.00 | 73 | 1025.0 |
| 20260506182819 | 57 | 271 | 0.0 | 5.0 | 0.00 | 0.00 | 0.00 | 73 | 1025.0 |
| 20260506182315 | 57 | 158 | 1.0 | 7.0 | 0.00 | 0.00 | 0.00 | 73 | 1024.8 |
| 20260506181813 | 57 | 153 | 0.0 | 0.0 | 0.00 | 0.00 | 0.00 | 73 | 1024.8 |
| 20260506181311 | 57 | 196 | 0.0 | 0.0 | 0.00 | 0.00 | 0.00 | 73 | 1025.0 |
| 20260506180808 | 57 | 202 | 0.0 | 0.0 | 0.00 | 0.00 | 0.00 | 74 | 1024.7 |
| 20260506180303 | 57 | 137 | 0.0 | 0.0 | 0.00 | 0.00 | 0.00 | 73 | 1024.9 |
| 20260506175800 | 57 | 176 | 0.0 | 5.0 | 0.00 | 0.00 | 0.00 | 73 | 1024.8 |
| 20260506175257 | 57 | 193 | 0.0 | 0.0 | 0.00 | 0.00 | 0.00 | 73 | 1024.9 |
| 20260506174754 | 58 | 208 | 0.0 | 0.0 | 0.00 | 0.00 | 0.00 | 73 | 1025.1 |
| 20260506174252 | 57 | 230 | 0.0 | 0.0 | 0.00 | 0.00 | 0.00 | 74 | 1024.8 |
| 20260506173749 | 57 | 121 | 1.0 | 3.0 | 0.00 | 0.00 | 0.00 | 74 | 1024.9 |
| 20260506173246 | 57 | 169 | 0.0 | 0.0 | 0.00 | 0.00 | 0.00 | 74 | 1024.9 |
| 20260506172742 | 57 | 172 | 0.0 | 0.0 | 0.00 | 0.00 | 0.00 | 74 | 1025.0 |
| 20260506172239 | 57 | 193 | 0.0 | 0.0 | 0.00 | 0.00 | 0.00 | 74 | 1025.0 |
| 20260506171737 | 56 | 215 | 0.0 | 0.0 | 0.00 | 0.00 | 0.00 | 74 | 1025.0 |
| 20260506171234 | 57 | 163 | 0.0 | 0.0 | 0.00 | 0.00 | 0.00 | 73 | 1025.1 |
| 20260506170731 | 57 | 192 | 0.0 | 5.0 | 0.00 | 0.00 | 0.00 | 74 | 1024.8 |
| 20260506170228 | 56 | 183 | 0.0 | 0.0 | 0.00 | 0.00 | 0.00 | 75 | 1025.0 |
| 20260506165726 | 56 | 225 | 0.0 | 0.0 | 0.00 | 0.00 | 0.00 | 75 | 1024.6 |
| 20260506165223 | 56 | 225 | 0.0 | 0.0 | 0.00 | 0.00 | 0.00 | 75 | 1024.7 |
| 20260506164720 | 57 | 231 | 0.0 | 0.0 | 0.00 | 0.00 | 0.00 | 74 | 1024.7 |
| 20260506164217 | 56 | 171 | 0.0 | 0.0 | 0.00 | 0.00 | 0.00 | 74 | 1024.5 |
| 20260506163714 | 56 | 191 | 0.0 | 0.0 | 0.00 | 0.00 | 0.00 | 75 | 1024.7 |
| 20260506163209 | 56 | 214 | 0.0 | 5.0 | 0.00 | 0.00 | 0.00 | 75 | 1024.5 |
| 20260506162705 | 56 | 167 | 0.0 | 0.0 | 0.00 | 0.00 | 0.00 | 75 | 1024.4 |
| 20260506162203 | 56 | 137 | 0.0 | 0.0 | 0.00 | 0.00 | 0.00 | 75 | 1024.4 |
| 20260506161700 | 56 | 183 | 0.0 | 0.0 | 0.00 | 0.00 | 0.00 | 76 | 1024.4 |
| 20260506161156 | 56 | 199 | 0.0 | 0.0 | 0.00 | 0.00 | 0.00 | 78 | 1024.4 |
| 20260506160654 | 55 | 152 | 0.0 | 3.0 | 0.00 | 0.00 | 0.00 | 78 | 1024.4 |
| 20260506160151 | 55 | 194 | 0.0 | 0.0 | 0.00 | 0.00 | 0.00 | 78 | 1024.9 |
| 20260506155649 | 55 | 140 | 0.0 | 0.0 | 0.00 | 0.00 | 0.00 | 78 | 1024.8 |
| 20260506155146 | 55 | 171 | 0.0 | 0.0 | 0.00 | 0.00 | 0.00 | 78 | 1024.8 |
| 20260506153248 | 55 | 163 | 0.0 | 0.0 | 0.00 | 0.00 | 0.00 | 80 | 1024.3 |
| 20260506152745 | 54 | 122 | 0.0 | 5.0 | 0.00 | 0.00 | 0.00 | 80 | 1024.4 |
| 20260506152242 | 54 | 132 | 2.0 | 5.0 | 0.00 | 0.00 | 0.00 | 80 | 1024.4 |
| 20260506151741 | 54 | 159 | 0.0 | 0.0 | 0.00 | 0.00 | 0.00 | 80 | 1024.4 |
| 20260506151237 | 54 | 197 | 0.0 | 0.0 | 0.00 | 0.00 | 0.00 | 80 | 1024.5 |
| 20260506150734 | 54 | 145 | 0.0 | 5.0 | 0.00 | 0.00 | 0.00 | 79 | 1024.6 |
| 20260506150231 | 54 | 208 | 0.0 | 0.0 | 0.00 | 0.00 | 0.00 | 79 | 1024.4 |
| 20260506145728 | 54 | 222 | 0.0 | 3.0 | 0.00 | 0.00 | 0.00 | 79 | 1024.5 |
| 20260506145224 | 54 | 201 | 0.0 | 0.0 | 0.00 | 0.00 | 0.00 | 79 | 1024.5 |
| 20260506144722 | 54 | 220 | 0.0 | 0.0 | 0.00 | 0.00 | 0.00 | 79 | 1024.6 |
| 20260506144219 | 54 | 239 | 0.0 | 3.0 | 0.00 | 0.00 | 0.00 | 80 | 1024.2 |
| 20260506143716 | 54 | 214 | 0.0 | 3.0 | 0.00 | 0.00 | 0.00 | 79 | 1024.3 |
| 20260506143214 | 54 | 242 | 0.0 | 0.0 | 0.00 | 0.00 | 0.00 | 80 | 1024.0 |
| 20260506142712 | 54 | 122 | 0.0 | 3.0 | 0.00 | 0.00 | 0.00 | 79 | 1024.0 |
| 20260506142210 | 55 | 177 | 0.0 | 0.0 | 0.00 | 0.00 | 0.00 | 79 | 1024.3 |